Lid_Strength_Index
2 2 1 1 1 1 1 1 1 1 1 0 1 1 1 1 1 3 4 3 6 9 9 9 9 11 11 11 13 14 13 14 14 16 17 16 17 16 16 15 15 15 16 17 18 18 19 10 11 13 10 8 8 9
2 2 2 2 1 1 1 1 1 1 1 1 1 1 0 0 1 1 5 4 4 8 9 7 7 7 7 8 9 13 11 14 11 13 15 14 16 16 15 17 13 16 13 14 15 14 10 9 9 8 7 8 8 8
2 2 2 2 2 1 1 1 1 1 1 1 1 1 1 1 1 1 4 5 6 9 9 9 10 7 7 6 5 10 11 8 10 7 11 11 14 12 16 15 13 12 10 13 12 11 10 9 7 7 7 7 7 7
1 1 2 2 2 2 2 1 1 1 1 1 1 1 1 1 1 1 4 4 5 7 11 9 8 8 5 4 5 5 5 7 6 7 9 11 13 10 12 12 13 11 11 12 12 11 9 9 8 7 7 7 7 8
2 2 1 1 1 1 1 1 1 1 1 1 1 1 1 1 1 1 2 3 3 6 9 9 9 8 6 5 5 4 5 6 7 9 10 11 9 10 9 10 13 10 11 13 13 9 9 10 7 6 8 8 9 10
1 1 1 1 1 1 1 1 1 0 0 0 0 0 0 -0 -0 2 6 3 2 3 6 9 6 8 7 5 5 5 6 6 7 8 9 8 8 9 12 14 10 9 8 8 10 8 7 7 6 8 10 11 12 13
1 1 1 1 1 1 1 1 1 1 0 -0 -0 -0 -1 -1 0 5 5 3 0 1 6 9 9 9 9 7 6 6 6 6 7 8 9 9 9 8 11 14 10 8 8 8 7 8 9 8 9 12 12 14 14 15
2 2 1 1 1 1 1 1 1 1 1 0 -0 -1 -1 -1 -1 3 1 -0 -0 3 5 9 10 12 9 10 10 7 8 7 8 8 9 10 9 9 12 10 8 8 8 8 8 11 11 13 13 14 15 16 16 16
2 2 2 2 1 1 2 1 1 1 1 0 -0 -1 0 2 4 4 -0 -1 0 3 8 9 12 14 10 10 9 10 8 11 8 11 10 9 11 14 11 10 9 9 9 9 15 15 15 15 15 16 17 17 17 17
3 3 2 2 2 2 2 2 2 1 1 0 1 4 6 5 -0 0 3 5 6 6 6 10 12 12 10 11 12 11 10 11 13 12 9 11 12 9 9 8 11 14 15 15 16 17 18 18 17 17 18 18 18 18
3 3 3 3 3 3 2 2 2 1 1 4 6 7 4 1 4 6 8 9 8 9 8 10 11 13 10 13 12 10 11 11 14 12 12 14 16 11 8 14 16 17 18 19 19 19 19 19 19 19 19 19 19 20
3 3 3 3 3 3 3 2 2 3 4 4 4 3 4 6 7 10 11 10 10 12 13 12 13 9 10 8 10 10 12 12 15 14 14 16 14 13 17 19 20 20 20 22 22 21 21 20 20 21 22 22 21 21
3 3 3 2 2 2 2 2 2 2 1 4 5 7 7 8 12 14 15 15 15 17 15 14 12 10 9 8 10 10 13 14 15 15 16 15 14 20 22 22 24 24 23 23 23 23 23 23 23 23 23 23 23 23
3 2 2 2 2 2 2 2 2 1 4 7 9 12 11 12 12 13 14 14 12 13 14 13 13 11 10 11 10 13 13 15 17 18 18 13 17 23 24 24 25 26 26 25 25 25 25 25 24 24 25 24 25 26
3 3 2 2 2 2 2 1 1 2 4 8 9 13 12 16 19 20 21 14 14 11 11 13 13 10 12 12 11 13 17 17 16 17 14 17 23 25 25 26 26 27 26 26 26 27 26 26 26 26 26 27 26 27
3 3 5 2 2 2 2 2 3 3 5 7 11 15 19 17 19 21 21 18 18 11 11 11 12 13 14 13 14 15 17 19 15 15 20 24 26 26 27 27 27 28 28 27 27 28 27 27 27 26 28 27 27 26
4 7 3 2 2 3 3 4 5 11 12 13 15 20 18 15 15 18 17 16 14 12 13 12 14 14 12 14 16 15 16 13 19 25 25 25 25 26 28 28 27 27 28 29 28 29 29 28 31 30 27 23 25 24
10 6 2 2 3 6 13 12 11 12 17 19 16 20 21 23 21 21 19 16 12 12 12 12 12 14 15 18 18 16 23 28 27 25 25 27 28 30 29 27 30 30 29 30 31 30 30 30 27 24 26 23 24 23
5 4 1 1 5 8 11 14 13 17 21 23 21 21 22 22 21 20 20 17 16 16 14 13 14 16 16 16 17 25 27 25 26 26 26 28 27 28 29 31 30 29 30 28 27 25 26 27 26 24 23 22 22 21
4 3 3 4 5 9 14 17 15 17 20 21 22 22 23 23 23 22 20 17 15 15 15 15 15 19 20 24 26 26 26 26 26 27 27 26 27 30 28 27 26 28 27 28 27 26 25 24 23 23 22 22 23 23
8 7 5 8 12 13 15 18 21 20 21 23 22 22 24 24 27 25 22 20 17 16 18 25 27 31 32 33 32 28 25 25 25 23 25 27 27 27 28 28 29 28 26 27 27 26 26 25 24 23 24 24 23 23
12 7 11 7 14 16 17 17 19 19 22 24 24 24 26 27 28 27 24 22 20 26 28 27 28 28 28 27 29 32 32 33 33 29 29 27 28 27 27 26 26 26 26 26 25 25 24 24 24 24 25 25 24 24
11 10 13 15 17 18 22 19 23 24 24 24 24 23 26 26 26 23 22 25 28 31 33 32 33 36 31 36 39 39 40 34 31 30 30 28 28 28 26 27 26 26 26 25 24 24 25 24 25 25 25 25 26 26
15 21 21 22 21 24 23 23 22 25 26 28 24 28 28 27 27 25 24 29 31 33 33 34 36 33 35 36 33 33 34 36 33 33 33 29 28 28 28 27 26 25 25 25 25 25 25 25 25 25 26 26 26 27
19 28 26 27 25 25 27 25 25 24 30 33 28 27 28 34 27 27 29 31 35 36 36 41 39 34 32 35 34 35 41 33 29 30 31 31 29 27 27 26 25 24 24 25 25 25 26 26 26 26 27 27 27 27
30 34 33 39 31 28 28 27 29 30 31 28 30 35 40 34 30 29 32 33 36 35 36 34 33 35 34 33 31 31 30 32 32 29 28 27 26 27 26 26 26 24 24 24 25 26 26 26 27 27 27 27 27 28
34 35 35 35 33 33 32 33 33 30 32 33 37 35 34 31 31 30 32 32 33 35 35 33 31 31 30 30 30 31 32 28 27 26 25 25 24 24 25 26 25 24 24 25 26 27 27 27 28 28 28 27 27 27
39 41 37 37 38 42 33 32 30 30 31 35 36 31 29 31 31 31 31 29 35 36 37 36 32 30 30 27 27 26 26 25 25 26 25 25 25 25 25 24 24 20 24 24 25 26 27 27 27 28 28 28 28 27
34 37 40 36 39 38 40 38 38 39 37 40 35 33 32 33 34 34 30 30 32 31 32 31 30 29 27 25 25 25 25 24 24 25 26 25 25 24 27 27 27 27 26 26 23 22 26 27 27 28 27 27 27 29
38 40 33 32 33 34 37 39 40 45 45 42 41 35 31 31 32 32 33 31 30 31 30 29 28 25 25 25 25 26 26 28 27 26 27 28 27 29 33 32 30 30 29 30 28 27 25 26 28 32 30 30 30 30
45 46 40 40 36 39 42 45 46 46 45 47 52 44 40 40 35 32 32 33 33 32 28 27 28 27 25 26 28 29 28 31 34 30 30 30 30 30 29 28 28 29 31 31 30 31 30 30 31 32 32 32 31 30
43 46 42 37 39 47 53 53 53 49 51 45 42 49 39 35 29 28 29 30 29 29 27 28 27 26 27 27 30 32 30 33 34 31 29 27 27 27 26 27 29 31 31 30 31 31 31 32 31 30 30 30 30 30
38 38 37 35 35 35 41 43 41 41 43 44 44 51 50 41 31 29 30 34 32 31 30 30 30 31 31 33 33 32 30 29 26 22 21 21 21 22 25 27 28 29 30 29 29 29 30 31 30 30 30 30 30 30